FW4831 Weather Reports


time (UTC)temp
C
wind
direction
speed
KPH
gust
KPH
rain 1hr
cm
rain 24hr
cm
rain mn
cm
humidity
%
barometer
mb
20260906150656 33 110 1.6 4.8 0.00 0.00 0.00 53 1013.1
20260906150154 33 272 3.2 6.4 0.00 0.00 0.00 53 1013.2
20260906145655 33 85 1.6 6.4 0.00 0.00 0.00 55 1013.1
20260906145155 33 241 1.6 6.4 0.00 0.00 0.00 55 1013.1
20260906144654 32 99 0.0 4.8 0.00 0.00 0.00 56 1013.1
20260906144507 32 78 3.2 4.8 0.00 0.00 0.00 56 1013.1
20260906143655 32 47 1.6 9.7 0.00 0.00 0.00 56 1013.2
20260906143156 32 97 6.4 9.7 0.00 0.00 0.00 57 1013.2
20260906142729 31 54 1.6 4.8 0.00 0.00 0.00 59 1013.3
20260906142712 32 66 4.8 8.0 0.00 0.00 0.00 57 1013.3
20260906142309 31 1 1.6 4.8 0.00 0.00 0.00 58 1013.3
20260906141153 30 109 1.6 3.2 0.00 0.00 0.00 63 1013.3
20260906141015 30 244 0.0 3.2 0.00 0.00 0.00 65 1013.3
20260906140155 30 206 1.6 4.8 0.00 0.00 0.00 66 1013.4
20260906135652 29 30 0.0 6.4 0.00 0.00 0.00 68 1013.3
20260906135523 29 226 1.6 6.4 0.00 0.00 0.00 70 1013.3
20260906134650 28 217 3.2 4.8 0.00 0.00 0.00 70 1013.3
20260906134150 28 237 1.6 6.4 0.00 0.00 0.00 72 1013.2
20260906133648 28 235 1.6 6.4 0.00 0.00 0.00 73 1013.3
20260906133148 27 275 3.2 4.8 0.00 0.00 0.00 76 1013.3
20260906132643 27 204 1.6 3.2 0.00 0.00 0.00 75 1013.3
20260906132145 27 206 0.0 3.2 0.00 0.00 0.00 76 1013.3
20260906131644 26 217 0.0 3.2 0.00 0.00 0.00 77 1013.4
20260906131142 26 209 0.0 3.2 0.00 0.00 0.00 77 1013.4
20260906130640 26 203 0.0 0.0 0.00 0.00 0.00 77 1013.4
20260906130141 26 203 0.0 0.0 0.00 0.00 0.00 77 1013.4
20260906125637 26 199 0.0 1.6 0.00 0.00 0.00 77 1013.3
20260906125130 26 161 0.0 1.6 0.00 0.00 0.00 78 1013.3
20260906124630 26 68 0.0 3.2 0.00 0.00 0.00 78 1013.2
20260906124129 25 83 0.0 3.2 0.00 0.00 0.00 79 1013.2
20260906123630 25 61 0.0 4.8 0.00 0.00 0.00 80 1013.1
20260906123127 25 344 0.0 4.8 0.00 0.00 0.00 80 1013.1
20260906122624 25 23 0.0 4.8 0.00 0.00 0.00 81 1013.0
20260906122123 25 80 3.2 4.8 0.00 0.00 0.00 81 1012.9
20260906121621 24 58 0.0 4.8 0.00 0.00 0.00 83 1012.7
20260906121441 24 0 3.2 4.8 0.00 0.00 0.00 82 1012.7
20260906120621 24 75 0.0 0.0 0.00 0.00 0.00 82 1012.6
20260906120442 24 0 0.0 0.0 0.00 0.00 0.00 81 1012.5
20260906115618 24 0 0.0 0.0 0.00 0.00 0.00 81 1012.4
20260906115118 25 0 0.0 0.0 0.00 0.00 0.00 80 1012.3
20260906114619 25 0 0.0 0.0 0.00 0.00 0.00 80 1012.2
20260906114117 25 0 0.0 0.0 0.00 0.00 0.00 80 1012.2
20260906113615 25 0 0.0 0.0 0.00 0.00 0.00 80 1012.0
20260906113116 25 0 0.0 0.0 0.00 0.00 0.00 79 1012.0
20260906112615 25 296 0.0 0.0 0.00 0.00 0.00 78 1012.0
20260906112110 25 274 0.0 0.0 0.00 0.00 0.00 77 1012.0
20260906111606 26 1 0.0 0.0 0.00 0.00 0.00 76 1011.9
20260906111105 26 1 0.0 0.0 0.00 0.00 0.00 75 1011.8
20260906110605 26 1 0.0 4.8 0.00 0.00 0.00 75 1011.8
20260906110423 26 72 0.0 6.4 0.00 0.00 0.00 75 1011.8
20260906105603 26 343 1.6 6.4 0.00 0.00 0.00 75 1011.7
20260906105103 26 302 3.2 6.4 0.00 0.00 0.00 75 1011.7
20260906104604 26 285 0.0 8.0 0.00 0.00 0.00 75 1011.8
20260906104103 26 293 3.2 8.0 0.00 0.00 0.00 76 1011.7
20260906103603 25 319 3.2 8.0 0.00 0.00 0.00 77 1011.7
20260906103102 25 288 0.0 0.0 0.00 0.00 0.00 79 1011.7
20260906102602 25 268 0.0 0.0 0.00 0.00 0.00 78 1011.7
20260906102101 25 261 0.0 0.0 0.00 0.00 0.00 78 1011.7
20260906101921 25 323 0.0 0.0 0.00 0.00 0.00 80 1011.7
20260906101102 25 323 0.0 0.0 0.00 0.00 0.00 79 1011.7
20260906100600 25 323 0.0 0.0 0.00 0.00 0.00 79 1011.7
20260906095604 25 321 0.0 0.0 0.00 0.00 0.00 78 1011.7
20260906095101 25 321 0.0 0.0 0.00 0.00 0.00 77 1011.7
20260906094602 25 321 0.0 0.0 0.00 0.00 0.00 77 1011.6
20260906094428 25 321 0.0 0.0 0.00 0.00 0.00 78 1011.4
20260906093600 25 321 0.0 0.0 0.00 0.00 0.00 78 1011.5
20260906093102 25 321 0.0 0.0 0.00 0.00 0.00 78 1011.5
20260906092600 25 321 0.0 0.0 0.00 0.00 0.00 78 1011.5
20260906092055 25 317 0.0 0.0 0.00 0.00 0.00 78 1011.5
20260906091553 25 290 0.0 0.0 0.00 0.00 0.00 76 1011.5
20260906091054 26 290 0.0 0.0 0.00 0.00 0.00 76 1011.5
20260906090556 26 286 0.0 0.0 0.00 0.00 0.00 76 1011.4
20260906090055 26 334 0.0 0.0 0.00 0.00 0.00 76 1011.4
20260906085552 26 334 0.0 0.0 0.00 0.00 0.00 76 1011.4
20260906085053 26 323 0.0 0.0 0.00 0.00 0.00 76 1011.4
20260906084554 25 0 0.0 0.0 0.00 0.00 0.00 77 1011.3
20260906084052 26 0 0.0 0.0 0.00 0.00 0.00 76 1011.3
20260906083554 26 0 0.0 0.0 0.00 0.00 0.00 76 1011.2
20260906083053 26 0 0.0 0.0 0.00 0.00 0.00 75 1011.2
20260906082554 26 0 0.0 0.0 0.00 0.00 0.00 75 1011.2
20260906082055 26 0 0.0 0.0 0.00 0.00 0.00 75 1011.2
20260906081915 26 0 0.0 0.0 0.00 0.00 0.00 75 1011.1
20260906081054 26 0 0.0 0.0 0.00 0.00 0.00 75 1011.2
20260906080555 26 0 0.0 0.0 0.00 0.00 0.00 75 1011.1
20260906080053 26 0 0.0 0.0 0.00 0.00 0.00 74 1011.2
20260906075553 26 0 0.0 0.0 0.00 0.00 0.00 75 1011.2
20260906075053 26 0 0.0 0.0 0.00 0.00 0.00 75 1011.2
20260906074554 26 0 0.0 0.0 0.00 0.00 0.00 74 1011.3
20260906074053 26 0 0.0 0.0 0.00 0.00 0.00 75 1011.2
20260906073555 26 0 0.0 0.0 0.00 0.00 0.00 74 1011.3
20260906073054 26 0 0.0 0.0 0.00 0.00 0.00 75 1011.4
20260906072553 26 0 0.0 0.0 0.00 0.00 0.00 74 1011.4
20260906072419 26 0 0.0 0.0 0.00 0.00 0.00 73 1011.5
20260906071555 26 0 0.0 0.0 0.00 0.00 0.00 72 1011.5
20260906071053 26 0 0.0 0.0 0.00 0.00 0.00 72 1011.6
20260906070553 26 0 0.0 0.0 0.00 0.00 0.00 72 1011.6
20260906070052 26 0 0.0 0.0 0.00 0.00 0.00 72 1011.7
20260906065909 26 0 0.0 0.0 0.00 0.00 0.00 72 1011.8
20260906065414 26 0 0.0 0.0 0.00 0.00 0.00 72 1011.7
20260906064910 27 336 0.0 0.0 0.00 0.00 0.00 71 1011.7
20260906064054 26 336 0.0 0.0 0.00 0.00 0.00 72 1011.7
20260906063554 26 17 0.0 0.0 0.00 0.00 0.00 72 1011.8
20260906063052 26 272 0.0 0.0 0.00 0.00 0.00 72 1011.8
20260906062553 26 272 0.0 0.0 0.00 0.00 0.00 72 1011.7
20260906062053 26 272 0.0 0.0 0.00 0.00 0.00 72 1011.7
20260906061555 27 71 0.0 0.0 0.00 0.00 0.00 71 1011.8
20260906061054 27 73 0.0 0.0 0.00 0.00 0.00 70 1011.8
20260906060910 27 58 0.0 0.0 0.00 0.00 0.00 69 1011.7
20260906060412 27 55 0.0 0.0 0.00 0.00 0.00 70 1011.7
20260906055552 27 258 0.0 0.0 0.00 0.00 0.00 70 1011.6
20260906055052 27 258 0.0 0.0 0.00 0.00 0.00 69 1011.7
20260906054555 27 258 0.0 0.0 0.00 0.00 0.00 68 1011.8
20260906054054 27 28 0.0 0.0 0.00 0.00 0.00 68 1011.7
20260906053552 27 44 0.0 0.0 0.00 0.00 0.00 69 1011.6
20260906053054 27 38 0.0 0.0 0.00 0.00 0.00 69 1011.6
20260906052555 27 38 0.0 0.0 0.00 0.00 0.00 68 1011.7
20260906052416 27 38 0.0 0.0 0.00 0.00 0.00 67 1011.6
20260906051554 28 38 0.0 0.0 0.00 0.00 0.00 67 1011.6
20260906051052 28 38 0.0 0.0 0.00 0.00 0.00 65 1011.5
20260906050555 28 0 0.0 0.0 0.00 0.00 0.00 64 1011.4
20260906050053 28 0 0.0 0.0 0.00 0.00 0.00 64 1011.4
20260906045552 28 52 0.0 0.0 0.00 0.00 0.00 65 1011.4
20260906045419 28 58 0.0 0.0 0.00 0.00 0.00 64 1011.4
20260906044554 28 55 0.0 0.0 0.00 0.00 0.00 64 1011.3
20260906044054 28 55 0.0 3.2 0.00 0.00 0.00 63 1011.2
20260906043910 28 55 0.0 3.2 0.00 0.00 0.00 63 1011.2
20260906043053 28 55 0.0 0.0 0.00 0.00 0.00 63 1011.2
20260906042553 28 55 0.0 0.0 0.00 0.00 0.00 64 1011.2
20260906042053 28 55 0.0 1.6 0.00 0.00 0.00 64 1011.2
20260906041555 28 55 0.0 3.2 0.00 0.00 0.00 63 1011.3
20260906041053 28 55 0.0 3.2 0.00 0.00 0.00 63 1011.2
20260906040552 29 281 0.0 0.0 0.00 0.00 0.00 61 1011.3
20260906040055 29 281 0.0 1.6 0.00 0.00 0.00 61 1011.4
20260906035553 29 281 0.0 3.2 0.00 0.00 0.00 59 1011.4
20260906035415 29 288 1.6 3.2 0.00 0.00 0.00 60 1011.4
20260906034919 29 14 0.0 3.2 0.00 0.00 0.00 60 1011.4
20260906034410 30 7 0.0 3.2 0.00 0.00 0.00 60 1011.5
20260906033554 29 1 0.0 0.0 0.00 0.00 0.00 60 1011.6
20260906033053 30 1 0.0 3.2 0.00 0.00 0.00 59 1011.5
20260906032554 30 1 0.0 3.2 0.00 0.00 0.00 58 1011.6
20260906032417 30 23 0.0 3.2 0.00 0.00 0.00 58 1011.7
20260906031553 30 8 0.0 3.2 0.00 0.00 0.00 58 1011.7
20260906031052 30 44 0.0 0.0 0.00 0.00 0.00 58 1011.7
20260906030552 30 44 0.0 0.0 0.00 0.00 0.00 56 1011.6
20260906030053 31 44 0.0 0.0 0.00 0.00 0.00 54 1011.7
20260906025553 31 44 0.0 0.0 0.00 0.00 0.00 53 1011.5
20260906025052 31 44 0.0 0.0 0.00 0.00 0.00 55 1011.5
20260906024554 31 44 0.0 0.0 0.00 0.00 0.00 55 1011.4
20260906024055 31 44 0.0 0.0 0.00 0.00 0.00 53 1011.4
20260906023553 32 44 0.0 0.0 0.00 0.00 0.00 51 1011.3
20260906023054 32 44 0.0 0.0 0.00 0.00 0.00 51 1011.2
20260906022918 32 44 0.0 0.0 0.00 0.00 0.00 51 1011.1
20260906022053 32 44 0.0 3.2 0.00 0.00 0.00 50 1011.1
20260906021553 32 44 0.0 3.2 0.00 0.00 0.00 51 1011.0
20260906021054 32 86 0.0 3.2 0.00 0.00 0.00 50 1010.8
20260906020553 32 61 0.0 3.2 0.00 0.00 0.00 50 1010.7
20260906020053 32 61 0.0 0.0 0.00 0.00 0.00 49 1010.7
20260906015555 32 61 0.0 3.2 0.00 0.00 0.00 49 1010.7
20260906015052 33 61 0.0 3.2 0.00 0.00 0.00 49 1010.6
20260906014555 32 62 0.0 3.2 0.00 0.00 0.00 49 1010.6
20260906014418 32 56 0.0 3.2 0.00 0.00 0.00 50 1010.5
20260906013546 32 271 0.0 4.8 0.00 0.00 0.00 52 1010.5
20260906013045 31 296 3.2 4.8 0.00 0.00 0.00 52 1010.5
20260906012536 32 0 0.0 3.2 0.00 0.00 0.00 54 1010.3
20260906012401 33 90 0.0 3.2 0.00 0.00 0.00 47 1010.1
20260906011902 33 90 0.0 3.2 0.00 0.00 0.00 46 1010.1
20260906011030 33 116 0.0 3.2 0.00 0.00 0.00 46 1010.1
20260906010529 34 61 3.2 3.2 0.00 0.00 0.00 46 1009.9
20260906010030 34 52 1.6 3.2 0.00 0.00 0.00 46 1010.0
20260906005531 34 65 0.0 3.2 0.00 0.00 0.00 46 1009.9
20260906005029 34 107 0.0 3.2 0.00 0.00 0.00 45 1009.9
20260906004532 34 94 0.0 1.6 0.00 0.00 0.00 46 1009.9
20260906004031 34 85 0.0 3.2 0.00 0.00 0.00 45 1010.0
20260906003530 34 125 0.0 3.2 0.00 0.00 0.00 46 1010.1
20260906003027 35 99 0.0 3.2 0.00 0.00 0.00 44 1010.0
20260906002527 35 97 0.0 4.8 0.00 0.00 0.00 45 1010.1
20260906002027 35 102 1.6 4.8 0.00 0.00 0.00 44 1010.0
20260906001518 35 47 0.0 3.2 0.00 0.00 0.00 45 1010.1
20260906001018 35 34 0.0 3.2 0.00 0.00 0.00 44 1010.1
20260906000516 35 48 0.0 3.2 0.00 0.00 0.00 44 1010.1
20260906000013 35 48 0.0 3.2 0.00 0.00 0.00 44 1010.0
20260905235511 35 92 0.0 3.2 0.00 0.00 0.00 43 1010.1
20260905235008 35 102 1.6 3.2 0.00 0.00 0.00 43 1010.0
20260905234506 36 93 1.6 3.2 0.00 0.00 0.00 42 1010.0
20260905234003 36 85 1.6 3.2 0.00 0.00 0.00 42 1010.0
20260905233503 36 130 0.0 3.2 0.00 0.00 0.00 42 1009.9
20260905233001 36 111 1.6 4.8 0.00 0.00 0.00 41 1010.0
20260905232459 36 92 1.6 4.8 0.00 0.00 0.00 41 1010.0
20260905231958 36 123 1.6 4.8 0.00 0.00 0.00 41 1010.0
20260905231457 36 138 3.2 4.8 0.00 0.00 0.00 40 1010.0
20260905230956 36 130 3.2 6.4 0.00 0.00 0.00 40 1010.1
20260905230453 36 179 1.6 8.0 0.00 0.00 0.00 39 1010.1
20260905225954 36 117 1.6 8.0 0.00 0.00 0.00 39 1010.1
20260905225455 36 54 3.2 8.0 0.00 0.00 0.00 39 1010.1
20260905224950 36 82 3.2 8.0 0.00 0.00 0.00 39 1010.1
20260905224453 36 110 3.2 8.0 0.00 0.00 0.00 40 1010.0
20260905224140 37 152 4.8 9.7 0.00 0.00 0.00 40 1010.1
20260905224056 37 86 3.2 9.7 0.00 0.00 0.00 40 1010.0
20260905222951 37 121 3.2 9.7 0.00 0.00 0.00 39 1010.2
20260905222452 37 79 6.4 9.7 0.00 0.00 0.00 38 1010.0
20260905221952 38 227 3.2 8.0 0.00 0.00 0.00 37 1010.0
20260905221655 37 178 3.2 9.7 0.00 0.00 0.00 38 1010.1
20260905221605 38 130 3.2 6.4 0.00 0.00 0.00 38 1010.0
20260905220452 37 75 4.8 9.7 0.00 0.00 0.00 39 1010.1
20260905215953 37 189 3.2 6.4 0.00 0.00 0.00 40 1010.0
20260905215452 37 164 3.2 6.4 0.00 0.00 0.00 40 1010.2
20260905214952 37 128 1.6 6.4 0.00 0.00 0.00 39 1010.0
20260905214453 37 151 3.2 6.4 0.00 0.00 0.00 40 1010.2
20260905213951 37 171 1.6 6.4 0.00 0.00 0.00 41 1010.2
20260905213453 37 124 1.6 6.4 0.00 0.00 0.00 40 1010.2
20260905212953 37 0 3.2 6.4 0.00 0.00 0.00 41 1010.1
20260905212451 37 128 3.2 6.4 0.00 0.00 0.00 42 1010.2
20260905211953 36 125 1.6 6.4 0.00 0.00 0.00 43 1010.3
20260905211453 36 183 1.6 6.4 0.00 0.00 0.00 43 1010.3
20260905210951 36 133 1.6 11.3 0.00 0.00 0.00 45 1010.3
20260905210452 36 148 1.6 14.5 0.00 0.00 0.00 42 1010.4
20260905205952 37 172 4.8 14.5 0.00 0.00 0.00 42 1010.6
20260905205454 37 0 4.8 11.3 0.00 0.00 0.00 43 1010.6
20260905204953 36 157 4.8 14.5 0.00 0.00 0.00 49 1010.8
20260905204452 35 209 6.4 19.3 0.00 0.00 0.00 48 1010.7
20260905203953 35 230 8.0 20.9 0.00 0.00 0.00 48 1010.9
20260905203452 35 199 11.3 24.1 0.00 0.00 0.00 48 1011.0
20260905202954 35 212 11.3 24.1 0.00 0.00 0.00 47 1010.9
20260905202451 36 257 11.3 24.1 0.00 0.00 0.00 43 1011.0
20260905201953 37 213 8.0 20.9 0.00 0.00 0.00 42 1011.0
20260905201451 37 248 3.2 6.4 0.00 0.00 0.00 40 1011.1
20260905200952 37 192 3.2 6.4 0.00 0.00 0.00 42 1011.0
20260905200453 37 135 1.6 6.4 0.00 0.00 0.00 41 1011.1
20260905195951 37 124 3.2 11.3 0.00 0.00 0.00 41 1011.2
20260905195453 37 144 3.2 11.3 0.00 0.00 0.00 39 1011.3
20260905194952 38 164 4.8 9.7 0.00 0.00 0.00 38 1011.4
20260905194455 38 85 4.8 8.0 0.00 0.00 0.00 37 1011.3
20260905193952 38 207 4.8 8.0 0.00 0.00 0.00 39 1011.3
20260905193454 38 76 3.2 6.4 0.00 0.00 0.00 40 1011.4
20260905193316 37 196 1.6 4.8 0.00 0.00 0.00 38 1011.4
20260905192450 37 140 1.6 6.4 0.00 0.00 0.00 39 1011.6
20260905191952 37 85 4.8 6.4 0.00 0.00 0.00 38 1011.6
20260905191452 37 305 0.0 8.0 0.00 0.00 0.00 39 1011.6
20260905190951 37 289 1.6 8.0 0.00 0.00 0.00 41 1011.7
20260905190453 37 52 4.8 8.0 0.00 0.00 0.00 39 1011.7
20260905185954 37 82 3.2 8.0 0.00 0.00 0.00 39 1011.8
20260905185453 37 13 1.6 8.0 0.00 0.00 0.00 38 1011.8
20260905184952 38 354 4.8 8.0 0.00 0.00 0.00 38 1011.9
20260905184453 38 7 3.2 9.7 0.00 0.00 0.00 38 1012.0
20260905183953 38 107 1.6 14.5 0.00 0.00 0.00 38 1011.9
20260905183451 39 193 3.2 14.5 0.00 0.00 0.00 37 1012.2
20260905182951 38 347 4.8 11.3 0.00 0.00 0.00 38 1012.1
20260905182452 38 195 4.8 9.7 0.00 0.00 0.00 40 1012.2
20260905181953 38 117 4.8 9.7 0.00 0.00 0.00 38 1012.2
20260905181453 38 251 3.2 8.0 0.00 0.00 0.00 37 1012.2
20260905181316 38 226 3.2 11.3 0.00 0.00 0.00 38 1012.3
20260905180453 38 164 6.4 11.3 0.00 0.00 0.00 38 1012.3
20260905175954 37 159 4.8 9.7 0.00 0.00 0.00 39 1012.4
20260905175452 38 83 3.2 9.7 0.00 0.00 0.00 39 1012.4
20260905175315 37 59 6.4 11.3 0.00 0.00 0.00 40 1012.6
20260905174452 37 117 6.4 11.3 0.00 0.00 0.00 39 1012.7
20260905173952 37 107 3.2 9.7 0.00 0.00 0.00 41 1012.8
20260905173454 37 83 6.4 9.7 0.00 0.00 0.00 45 1012.8
20260905172954 36 293 1.6 9.7 0.00 0.00 0.00 43 1012.9
20260905172454 37 71 3.2 9.7 0.00 0.00 0.00 40 1012.9
20260905171953 37 171 4.8 8.0 0.00 0.00 0.00 40 1013.0
20260905171453 37 331 3.2 6.4 0.00 0.00 0.00 44 1013.0
20260905170951 37 162 3.2 8.0 0.00 0.00 0.00 42 1013.1
20260905170453 37 223 4.8 8.0 0.00 0.00 0.00 42 1013.1
20260905165950 36 135 1.6 11.3 0.00 0.00 0.00 41 1013.3
20260905165448 36 87 8.0 11.3 0.00 0.00 0.00 41 1013.4
20260905164947 36 59 4.8 11.3 0.00 0.00 0.00 45 1013.4
20260905164447 36 20 3.2 8.0 0.00 0.00 0.00 42 1013.4
20260905163942 36 175 3.2 9.7 0.00 0.00 0.00 43 1013.5
20260905163443 36 124 1.6 9.7 0.00 0.00 0.00 43 1013.5
20260905163307 36 212 1.6 9.7 0.00 0.00 0.00 43 1013.6
20260905162436 36 219 3.2 6.4 0.00 0.00 0.00 43 1013.6
20260905162305 36 238 4.8 6.4 0.00 0.00 0.00 42 1013.7
20260905161435 36 258 1.6 6.4 0.00 0.00 0.00 45 1013.7
20260905160935 35 87 3.2 6.4 0.00 0.00 0.00 45 1013.8
20260905160758 36 172 1.6 6.4 0.00 0.00 0.00 44 1013.8
20260905155934 36 39 1.6 6.4 0.00 0.00 0.00 46 1013.9
20260905155431 36 120 3.2 6.4 0.00 0.00 0.00 45 1013.8
20260905154931 36 35 0.0 8.0 0.00 0.00 0.00 48 1013.8
20260905154429 35 56 4.8 9.7 0.00 0.00 0.00 47 1013.9
20260905153928 35 114 4.8 9.7 0.00 0.00 0.00 47 1013.9
20260905153429 35 0 4.8 8.0 0.00 0.00 0.00 46 1013.8
20260905153247 35 133 1.6 6.4 0.00 0.00 0.00 48 1013.8
20260905152420 35 32 3.2 8.0 0.00 0.00 0.00 49 1013.8
20260905151917 34 99 3.2 8.0 0.00 0.00 0.00 48 1013.8
20260905151415 34 324 1.6 4.8 0.00 0.00 0.00 53 1013.9
20260905151241 33 257 3.2 4.8 0.00 0.00 0.00 53 1013.9